LiveATC.Net - Listen to live air traffic control over the Internet!


ICAO: EPWR  IATA: WRO   Airport: Strachowice Airport
City: Wroclaw
Country: Poland   Continent: Europe
EPWR METAR Weather: EPWR 121630Z VRB02KT 9999 SCT030 02/M02 Q1004
EPWR Flight Activity (FlightAware)

EPWR Tower
Feed Status: DOWN
Last heard on: 2019-10-14 09:07:39 (59 days 8 hours 15 minutes ago)
Archive Access: EPWR Tower
FacilityFrequency
Wroclaw Tower120.250

EPWR Twr/App
Feed Status: UP   Listeners: 0
Listen in your browser - HTML5 player (in browser, HTML5)
Click here to listen with your own player (launches your MP3 player)
Archive Access: EPWR Twr/App
FacilityFrequency
Poznan Approach (South)127.225

NOTICE

Unauthorized use prohibited. See LiveATC.net Terms of Service


Airport/ARTCC Code
Frequency Search
(e.g., 124.400, 128.75)
Site-wide search
 


Browse Feeds
Top 50 Feeds
Coverage Map
Bad Weather Areas

LiveATC FAQ
Offer LiveATC feed
Contact LiveATC.net
Press Inquiries

LiveATC on iPhone
LiveATC on Android

Windows Phone
Windows 8/10

LiveATC Mobile
(Mobile browser)

ATC Audio Archives
Interesting Recordings

LiveATC Forums


Home Page
About LiveATC.net
Make a Donation
Terms of Use
Privacy Policy

Canadian Air Freqs

AIRMETs/SIGMETs

FAA Airport Status
Nat'l Airspace Status
Arrival Demand Charts


Server Software By:
Icecast.org
Liquidsoap